Location: Melizzano
(41.1500°N, 14.5000°E)
Time: 08:19:26
(UTC+00:00)

ATLAS 2AS CENTAUR R/B - Pass Details

Date: 11 May 2021
Orbit: 949 x 1263 km, 63.7° (Epoch: 07 May)

Event Time Altitude Azimuth Distance (km) Brightness Sun altitude
Rises 21:25:42 0° 326° (NW) 4,082 7.0 -27.0°
Reaches altitude 10° 21:28:32 10° 328° (NNW) 3,074 6.1 -27.2°
Maximum altitude 21:35:51 76° 54° (NE) 1,131 2.7 -27.7°
Enters shadow 21:37:04 61° 116° (ESE) 1,214 2.7 -27.8°
